Portada
METAR-TAF:

METAR-TAF

Aeroports :

Penrhyn, Illes Cook

latitud: 9-00-52S, longitud: 158-01-57W, altitud: 2 m

Observació

L'informe es va fer fa 1 hora i 14 minuts, a les 22:00 UTC
Vent 11 kt del Nord/Nord-Est
Temperatura 29°C
Humitat 70%
Pressió 1008 hPa

METAR: NCPY 262200Z AUTO 03011KT //// ////// 29/23 Q1008

Hora: 13:14 (23:14 UTC)


TAF: manca

Observacions i pronòstics meteorològics de més de 4000 aeroports (METAR i TAF).

Les estacions disponibles són els punts grocs i vermells al mapa.

Posi el ratolí al punt desitjat per veure el nom de l'estació.

Feu clic per veure les observacions i els pronòstics meteorològics.

Per canviar el mapa: feu clic els botons verds amb una creu de color negre per apropar; al botó verd amb un guió per allunyar la imatge; o en les fletxes verdes per a mapes adjacents.


METAR-TAF: